Regional Weather Roundup
Issued by NWS

Home | Current Version | Previous Version | Text Only | Print | Product List | Glossary Off
Versions: 1 2 3 4 5 6 7 8 9 10 11 12 13 14 15 16 17 18 19 20 21 22 23 24 25 26 27 28 29 30 31 32 33 34 35 36 37 38 39 40 41 42 43 44 45 46 47 48 49 50

000
ASUS43 KIND 290209
RWRIN

WEATHER ROUNDUP FOR INDIANA
NATIONAL WEATHER SERVICE INDIANAPOLIS IN
1000 PM EDT SUN MAY 28 2017

NOTE: "FAIR" INDICATES FEW OR NO CLOUDS BELOW 12,000 FEET WITH NO
SIGNIFICANT WEATHER AND/OR OBSTRUCTIONS TO VISIBILITY.

* - STATION DOES NOT REPORT WEATHER SUCH AS PRECIPITATION OR FOG.

+ - STATION NOT QUALITY CONTROLLED BY THE NATIONAL WEATHER SERVICE.
    USE DATA WITH CAUTION...ESPECIALLY DEWPOINT AND RELATIVE
    HUMIDITY OBSERVATIONS.

INZ001>003-010>013-019-020-290300-
NORTHWEST INDIANA

CITY           SKY/WX    TMP DP  RH WIND       PRES   REMARKS
GARY /AIRPORT/ PTCLDY    66  54  63 VRB5      29.77R
KNOX *+        CLEAR     63  50  63 CALM      29.77S
LA PORTE +     CLEAR     61  58  91 CALM      29.77F
MICHIGAN CITY+ PTCLDY    59  59 100 CALM      29.77S
MONTICELLO +   CLEAR     65  53  65 W3        29.78R
RENSSELAER +   PTCLDY    68  46  45 W3        29.78S
VALPARAISO     PTCLDY    68  56  65 CALM      29.77S

$$

LMZ046-743>745-290300-
SOUTHERN LAKE MICHIGAN

STATION/POSITION TIME  TEMP    WIND        PRES    WAVE
                       AIR SEA DIR/SP/G            HT
                 (UTC) (F)     (DEG/KT/KT) (MB)    (FT)
BURNS HARBOR     0140   65     190/  4/  4 1008.1S
MICHIGAN CITY    0140   66     150/  4/  4   N/A
5NW MICH CITY    0200   60 58  160/  4/  6   N/A     1

$$

INZ004-005-014>016-021>024-290300-
NORTH CENTRAL INDIANA

CITY           SKY/WX    TMP DP  RH WIND       PRES   REMARKS
GOSHEN         CLEAR     63  52  67 W5        29.77R
LOGANSPORT +   CLEAR     64  55  72 W3        29.80R
PERU/GRISSOM   CLEAR     67  59  75 W5        29.78R
ROCHESTER +    CLEAR     66  59  77 CALM      29.79R
SOUTH BEND     CLEAR     62  57  83 S3        29.77S
WARSAW +       CLEAR     61  54  77 NW3       29.78R

$$

INZ006>009-017-018-025>027-290300-
NORTHEAST INDIANA

CITY           SKY/WX    TMP DP  RH WIND       PRES   REMARKS
ANGOLA *+      CLEAR     66  57  72 W6        29.75S
AUBURN +       MOCLDY    64  61  88 W6        29.77R
FORT WAYNE     CLOUDY    63  60  90 SW6       29.77S
HUNTINGTON +   PTCLDY    59  57  95 CALM      29.68F
KENDALLVILLE + PTCLDY    64  56  74 W7        29.77R

$$

INZ028-029-035-036-043>045-051>053-290300-
WEST CENTRAL INDIANA

CITY           SKY/WX    TMP DP  RH WIND       PRES   REMARKS
CRAWFORDSVL +  CLEAR    -18 -22  81 W3        29.81S
GREENCASTLE +    N/A     63  63 100 CALM      29.83R FOG
LAFAYETTE      CLEAR     65  55  70 W3        29.78S
TERRE HAUTE    CLEAR     67  54  63 CALM      29.82R

$$

INZ030>032-037>040-046>048-054>057-064-065-290300-
CENTRAL INDIANA

CITY           SKY/WX    TMP DP  RH WIND       PRES   REMARKS
CP ATTERBURY + MOCLDY    63  61  94 CALM      29.83S
COLUMBUS       CLOUDY    64  61  88 SE3       29.82R
FRANKFORT +    PTCLDY    67  59  76 NW5       29.82R
GREENWOOD *+   CLOUDY    64  63  96 S3        29.82S
INDIANAPOLIS   PTCLDY    63  62  97 SW5       29.81R
-EAGLE CREEK   CLEAR     65  63  93 SW5       29.80S
KOKOMO +       CLEAR     66  59  78 NW7       29.80R
MARION +       PTCLDY    64  61  88 W3        29.80R
MT COMFORT *+    N/A    N/A N/A N/A MISG        N/A
SHELBYVILLE    MOCLDY    66  62  87 S7        29.81R
ZIONSVILLE +   CLEAR     64  62  94 W3        29.81S

$$

INZ033-034-041-042-049-050-058-059-290300-
EAST CENTRAL INDIANA

CITY           SKY/WX    TMP DP  RH WIND       PRES   REMARKS
MUNCIE         CLOUDY    68  62  81 SW12      29.78S
RICHMOND +     RAIN      61  59  94 W9        29.84R

$$

INZ060-061-067>069-081>083-085>088-290300-
SOUTHWEST INDIANA

CITY           SKY/WX    TMP DP  RH WIND       PRES   REMARKS
EVANSVILLE     PTCLDY    69  61  75 SW6       29.87R
HUNTINGBURG *+ PTCLDY    68  65  90 SW6       29.86
WASHINGTON +   PTCLDY    70  62  74 SW8       29.84R

$$

INZ062-063-066-070>080-084-089>092-290300-
SOUTH CENTRAL AND SOUTHEAST INDIANA

CITY           SKY/WX    TMP DP  RH WIND       PRES   REMARKS
BEDFORD +      PTCLDY    70  63  78 SW8       29.83R
BLOOMINGTON    MOCLDY    69  63  81 W10       29.83R
MADISON *+     PTCLDY    68  63  83 SW5       29.85R
NORTH VERNON + RAIN      63  63 100 NW5       29.84R
SEYMOUR +      MOCLDY    72  64  78 NW7       29.82R

$$





USA.gov is the U.S. government's official web portal to all federal, state and local government web resources and services.